Location: Asheville, NC
(35.6000°N, 82.5500°W)
Time: 20:31:35
(UTC-04:00)

Vanguard 2 - Pass Details

Date: 12 March 2018
Orbit: 553 x 2939 km, 32.9° (Epoch: 20 June)

Event Time Altitude Azimuth Distance (km) Brightness Sun altitude
Rises 15:58:37 0° 275° (W) 6,615 12.8 39.5°
Reaches altitude 10° 16:02:51 10° 274° (W) 5,709 12.6 38.9°
Maximum altitude 16:20:55 76° 193° (SSW) 2,825 11.2 36.0°
Drops below altitude 10° 16:35:12 10° 111° (ESE) 4,661 11.3 33.7°
Sets 16:38:17 0° 109° (ESE) 5,396 11.5 33.1°
